Wind_Speed
6 7 7 7 6 5 4 7 7 7 8 8 7 6 5 5 4 5 5 5 6 7 5 1 3 8 9 5 7 12 13 13 12 12 12 10 10 10 10 10 9 8 9
5 6 8 9 9 8 8 8 7 7 9 10 9 8 8 6 6 5 7 7 7 8 7 3 2 6 10 10 8 9 11 12 11 11 11 11 10 9 9 9 8 8 8
4 4 6 8 10 11 11 10 11 10 9 9 11 11 11 10 8 7 6 8 9 10 9 7 5 5 9 11 13 10 11 12 11 11 11 12 11 9 8 8 7 6 6
6 6 7 6 7 10 12 13 13 13 13 12 11 11 12 12 12 11 9 8 10 11 12 10 9 8 7 10 12 13 13 13 12 11 11 12 12 12 10 8 7 5 4
9 9 9 9 9 9 11 12 14 16 15 15 15 14 12 13 14 14 13 11 10 12 13 13 11 11 10 10 11 12 13 13 13 12 11 12 12 13 13 11 9 7 5
12 12 12 12 12 12 13 14 14 15 17 18 18 17 17 15 15 16 16 14 13 13 12 13 14 13 14 13 12 12 14 14 13 13 13 13 13 13 14 15 12 10 8
12 13 15 16 16 16 16 16 16 16 17 17 18 20 19 19 19 17 16 17 17 16 14 13 14 15 15 17 15 14 13 14 15 15 14 14 14 15 14 14 13 13 11
10 11 14 15 17 18 18 18 17 17 18 18 18 19 20 22 22 21 20 19 19 20 18 16 14 14 17 18 19 17 16 15 14 15 16 16 16 16 16 15 14 14 15
12 13 13 14 14 16 17 18 19 20 20 20 20 20 20 21 22 23 23 22 21 21 22 21 18 16 15 18 19 19 19 18 17 16 16 17 18 19 19 18 17 15 14
15 15 14 14 15 15 15 16 17 19 22 22 22 23 22 22 22 22 22 24 25 25 23 23 23 22 21 19 19 20 21 21 20 20 19 18 18 19 21 21 21 19 17
18 18 19 19 19 18 18 18 18 18 20 22 25 25 25 25 23 23 22 22 23 27 27 26 26 26 26 25 23 21 21 22 24 23 23 22 21 21 21 23 24 24 22
22 22 21 21 23 23 22 20 20 20 20 20 22 26 28 27 27 27 26 25 24 24 25 28 29 28 27 28 27 25 22 23 23 25 27 26 25 25 25 24 24 25 26
20 21 22 23 24 25 26 27 25 23 22 22 22 22 24 28 29 29 29 29 28 27 26 26 26 27 29 30 30 31 27 27 26 24 25 25 27 29 30 28 29 26 28
21 21 23 24 24 25 26 29 29 30 28 26 24 23 23 23 24 26 29 30 30 30 30 30 29 29 29 28 30 31 33 34 29 27 27 27 27 27 29 31 32 31 30
22 22 23 24 26 27 27 28 29 30 30 29 28 26 25 24 24 23 24 24 26 27 29 30 31 31 32 32 31 31 32 34 33 34 31 30 31 30 30 29 31 33 33
26 26 25 26 27 27 30 30 30 28 27 28 27 23 20 18 18 18 20 22 24 24 23 24 25 27 29 31 32 33 34 34 34 34 33 35 35 36 35 32 30 31 34
31 30 30 30 30 29 31 32 32 31 31 30 29 28 27 26 25 22 21 20 18 16 17 18 21 23 25 27 28 30 33 35 36 36 35 35 37 36 34 34 33 35 35
33 33 35 35 35 36 35 34 35 36 36 36 35 34 33 32 31 30 30 29 28 27 26 25 24 23 22 23 24 28 31 32 34 36 38 37 36 35 36 35 37 36 36
38 39 39 40 40 41 42 41 40 40 42 41 41 40 39 38 37 35 35 36 35 35 34 33 32 31 30 29 29 29 28 31 34 35 35 36 38 39 39 36 34 36 34
43 43 44 45 46 47 47 48 48 47 46 47 47 46 44 42 42 40 40 40 40 40 40 38 37 36 35 34 34 34 34 32 32 34 38 39 39 38 39 40 39 40 38
47 48 49 50 50 51 53 52 52 53 53 53 52 51 50 49 48 46 44 44 45 44 44 43 42 41 40 40 40 38 37 37 36 35 35 38 40 41 41 40 42 44 42
54 54 54 54 55 56 57 58 59 59 60 59 58 58 57 56 55 54 53 51 51 50 48 48 47 45 44 44 43 43 40 39 40 39 38 37 36 39 43 44 45 44 44
56 57 58 59 59 60 61 62 63 64 64 64 64 64 64 64 63 62 61 59 58 57 56 54 52 51 50 48 48 48 45 43 43 43 43 42 41 41 40 41 45 46 47
59 61 61 61 62 63 63 65 67 68 67 68 68 69 69 68 68 66 66 66 65 64 62 62 61 59 57 55 53 52 52 48 46 46 47 46 45 43 44 44 43 43 46
63 64 65 65 65 65 67 68 69 71 72 73 73 74 73 72 72 72 72 71 70 69 68 67 66 65 64 63 61 58 57 54 51 49 48 48 49 47 47 46 47 46 43
65 67 68 70 72 73 74 75 76 77 78 79 80 80 80 79 78 76 76 76 75 74 73 72 71 70 67 66 65 63 61 58 55 55 54 52 52 51 50 48 49 49 48
Wind_Direction
238 223 210 198 208 212 204 189 196 201 201 198 200 206 204 204 211 208 210 205 195 190 195 156 125 142 163 173 136 149 157 158 161 153 153 144 134 128 126 120 114 112 115
245 230 226 213 206 216 219 214 201 204 213 213 214 213 215 213 209 211 217 216 202 197 196 211 180 153 169 179 188 165 167 171 169 166 166 163 152 141 129 119 116 106 110
254 248 235 228 219 220 221 221 220 217 215 219 225 226 221 222 222 217 216 224 221 211 216 204 210 190 171 182 190 191 184 180 178 179 176 178 172 166 152 135 122 118 114
259 252 250 244 234 229 234 230 225 228 229 227 230 233 232 229 229 228 222 223 228 225 225 230 214 214 201 188 189 192 193 192 189 191 189 191 189 189 182 169 156 142 137
256 257 259 256 251 241 236 238 237 234 233 233 232 235 237 234 232 234 233 226 226 226 229 234 237 223 219 211 202 200 203 204 204 202 203 203 201 203 204 196 185 183 182
256 255 256 257 257 254 247 244 243 240 240 239 238 235 236 238 238 235 235 235 232 229 221 231 233 233 227 223 217 209 210 212 215 217 214 212 210 211 212 211 205 204 206
260 261 262 261 257 255 252 249 248 246 245 244 243 243 239 238 239 238 238 236 236 235 231 226 229 234 236 230 224 224 218 218 219 222 223 221 218 218 216 222 215 217 221
256 257 259 261 263 261 259 257 254 253 251 249 246 246 247 244 241 240 240 241 235 236 234 230 222 226 237 237 232 226 227 224 222 225 226 226 224 223 221 219 221 225 229
237 237 240 246 253 259 261 259 257 252 249 250 250 248 246 247 247 245 242 240 242 240 238 232 228 228 237 241 238 232 229 229 228 226 228 229 230 229 226 224 225 230 234
251 252 251 251 254 257 259 260 260 259 255 249 248 249 250 246 246 247 245 243 241 241 239 240 235 234 231 239 240 238 234 232 230 231 230 233 235 236 236 230 229 230 233
271 269 269 264 254 249 249 252 255 257 257 254 250 248 248 249 248 247 246 244 241 242 240 240 241 238 237 238 241 239 237 236 236 236 236 237 239 240 243 241 235 232 233
275 275 275 277 280 279 271 258 253 254 254 255 254 251 248 248 248 247 247 247 245 244 245 244 243 243 240 242 244 245 241 239 237 238 241 243 245 246 243 247 245 241 239
282 282 281 277 275 278 279 278 272 259 255 254 252 251 250 249 249 249 249 248 249 249 250 249 246 246 247 244 246 249 246 245 242 239 242 241 243 247 248 247 248 246 244
281 282 280 280 281 278 277 279 274 270 265 258 251 248 249 248 247 248 250 250 249 250 251 252 251 250 248 247 247 244 248 246 244 241 243 244 243 245 247 248 248 248 248
276 279 278 277 277 277 277 275 275 275 268 258 250 249 244 245 245 245 245 246 250 250 252 254 255 254 252 251 249 251 250 252 254 254 244 245 245 245 246 247 248 247 247
282 279 277 275 276 274 272 271 270 266 265 266 257 245 238 240 238 240 247 249 249 250 250 254 257 259 258 257 254 252 253 254 255 254 254 258 254 243 243 245 247 248 248
286 285 282 280 276 273 271 268 265 263 263 260 254 250 243 242 241 242 241 241 244 247 251 252 255 261 264 265 264 260 256 254 256 257 257 255 258 262 257 244 246 248 249
279 280 280 280 278 277 271 268 265 261 257 258 255 253 250 246 247 250 246 243 250 250 253 257 260 262 263 265 266 266 264 262 260 258 258 257 257 258 260 259 260 261 254
279 280 280 279 278 276 277 274 268 263 262 258 257 255 252 250 251 248 246 249 253 255 257 257 259 261 264 266 267 267 266 265 262 262 262 260 256 256 258 258 259 260 249
276 276 276 276 276 275 274 273 272 269 265 261 259 258 255 251 248 247 252 254 248 247 246 246 250 255 259 261 264 267 266 264 266 263 260 260 261 260 258 256 256 257 257
276 275 275 276 275 274 274 273 271 270 267 265 263 259 257 255 251 246 243 243 247 251 251 248 247 246 253 260 265 266 266 264 263 265 267 261 259 259 259 259 258 257 255
276 276 275 275 275 275 274 272 270 270 269 267 264 262 261 258 254 250 250 247 242 241 246 250 249 247 249 259 261 264 264 261 259 261 262 265 265 261 259 258 258 259 260
275 274 274 274 274 273 272 271 270 268 267 266 264 263 260 258 256 255 252 250 251 249 243 242 245 247 247 251 257 261 261 260 258 259 259 260 264 267 267 264 261 260 260
276 275 274 272 272 271 270 270 269 268 267 265 264 263 262 260 258 255 254 253 251 250 250 248 245 244 246 249 251 254 259 258 256 257 260 260 261 263 266 267 266 262 260
276 275 275 274 273 271 269 268 267 266 265 264 264 263 262 260 259 257 256 254 253 253 251 251 250 251 249 247 249 250 254 258 259 257 258 260 261 261 262 264 267 268 267
277 276 275 275 275 274 271 269 266 265 264 263 263 261 261 261 259 257 256 256 254 252 252 251 251 251 252 252 251 252 252 252 254 258 258 257 258 261 261 263 264 266 267
Height
5857 5858 5859 5860 5862 5862 5863 5865 5866 5867 5867 5868 5869 5870 5870 5870 5870 5870 5871 5872 5872 5874 5876 5876 5877 5877 5877 5877 5878 5880 5881 5882 5883 5885 5887 5888 5889 5890 5890 5891 5891 5892 5892
5855 5856 5857 5859 5860 5861 5862 5862 5864 5865 5866 5866 5868 5868 5869 5870 5870 5870 5871 5871 5872 5873 5875 5876 5877 5877 5877 5877 5878 5880 5881 5882 5884 5885 5887 5888 5889 5891 5892 5892 5892 5893 5893
5853 5854 5855 5856 5857 5859 5859 5860 5861 5862 5864 5865 5865 5867 5867 5868 5868 5869 5869 5870 5871 5872 5873 5874 5876 5877 5878 5878 5878 5879 5881 5882 5884 5885 5887 5888 5889 5891 5892 5892 5893 5893 5893
5852 5852 5853 5854 5855 5856 5857 5857 5859 5860 5861 5862 5863 5864 5865 5865 5866 5866 5867 5868 5869 5871 5872 5873 5874 5875 5876 5877 5878 5879 5881 5882 5883 5885 5886 5887 5888 5890 5891 5892 5893 5894 5894
5850 5850 5851 5852 5853 5853 5854 5854 5856 5856 5858 5859 5860 5861 5862 5863 5863 5864 5865 5866 5867 5868 5870 5871 5873 5873 5874 5876 5877 5878 5879 5881 5882 5883 5885 5886 5888 5889 5891 5892 5892 5893 5894
5847 5848 5848 5849 5849 5850 5851 5851 5852 5853 5854 5855 5856 5858 5859 5859 5860 5861 5862 5863 5864 5865 5867 5869 5870 5871 5872 5873 5875 5876 5877 5879 5880 5882 5883 5885 5885 5887 5889 5890 5891 5892 5893
5844 5844 5845 5845 5845 5846 5847 5848 5849 5850 5851 5851 5852 5853 5855 5856 5857 5858 5859 5860 5862 5862 5864 5865 5867 5869 5870 5871 5872 5874 5875 5877 5878 5880 5881 5882 5883 5885 5887 5888 5889 5891 5892
5841 5841 5842 5842 5842 5842 5843 5844 5845 5846 5847 5848 5848 5849 5850 5852 5853 5854 5856 5856 5857 5859 5860 5862 5864 5865 5867 5868 5870 5871 5872 5874 5875 5877 5878 5880 5881 5882 5884 5885 5887 5888 5889
5836 5836 5836 5836 5837 5837 5837 5838 5839 5840 5841 5842 5843 5845 5846 5847 5848 5849 5851 5852 5854 5855 5856 5858 5860 5861 5862 5864 5866 5868 5869 5871 5872 5874 5876 5877 5878 5880 5881 5883 5884 5885 5886
5832 5833 5833 5834 5834 5834 5834 5834 5835 5835 5836 5837 5838 5839 5840 5842 5843 5845 5846 5847 5849 5850 5852 5853 5855 5857 5858 5859 5861 5863 5865 5867 5869 5870 5872 5873 5875 5876 5877 5879 5880 5881 5883
5832 5832 5831 5830 5828 5828 5828 5829 5830 5830 5831 5832 5833 5834 5835 5836 5838 5840 5841 5842 5843 5845 5846 5848 5850 5852 5854 5855 5856 5858 5860 5862 5864 5866 5868 5869 5871 5872 5873 5874 5876 5878 5879
5829 5829 5829 5830 5829 5828 5827 5825 5824 5824 5825 5826 5826 5828 5829 5830 5831 5833 5835 5837 5839 5840 5841 5843 5845 5847 5849 5850 5851 5853 5855 5856 5858 5860 5862 5864 5865 5867 5868 5870 5871 5874 5875
5827 5826 5826 5826 5825 5825 5824 5824 5823 5820 5819 5820 5820 5821 5822 5823 5825 5826 5828 5831 5833 5834 5835 5837 5838 5841 5844 5845 5846 5847 5849 5851 5852 5854 5856 5858 5860 5861 5863 5865 5866 5868 5869
5823 5823 5822 5822 5821 5821 5820 5820 5819 5818 5816 5815 5814 5814 5815 5816 5817 5819 5821 5823 5825 5827 5829 5831 5832 5834 5836 5838 5840 5841 5843 5845 5846 5848 5850 5852 5853 5855 5856 5859 5860 5862 5864
5817 5817 5816 5816 5816 5815 5814 5814 5814 5814 5813 5811 5809 5809 5809 5810 5811 5812 5813 5815 5817 5819 5821 5823 5826 5828 5829 5831 5833 5835 5836 5837 5839 5841 5843 5845 5847 5849 5850 5852 5854 5855 5857
5812 5811 5810 5810 5809 5810 5808 5807 5807 5807 5807 5807 5807 5806 5805 5804 5805 5806 5808 5809 5810 5812 5814 5816 5818 5820 5822 5824 5826 5828 5829 5830 5832 5834 5835 5836 5838 5840 5843 5844 5846 5848 5849
5804 5804 5803 5802 5802 5801 5801 5801 5800 5800 5800 5800 5800 5801 5801 5800 5800 5801 5802 5803 5805 5806 5808 5809 5810 5812 5815 5817 5818 5820 5822 5824 5825 5826 5828 5830 5831 5833 5835 5838 5839 5841 5843
5795 5795 5794 5794 5793 5793 5792 5792 5792 5791 5792 5792 5792 5792 5793 5795 5795 5796 5795 5796 5797 5799 5800 5802 5803 5805 5807 5809 5811 5813 5815 5816 5818 5819 5821 5823 5824 5826 5827 5830 5832 5833 5835
5788 5786 5785 5784 5784 5783 5782 5782 5782 5782 5782 5783 5783 5783 5784 5785 5787 5788 5788 5789 5790 5791 5791 5792 5794 5796 5797 5800 5802 5804 5807 5808 5810 5812 5814 5815 5816 5818 5819 5822 5823 5825 5826
5778 5777 5775 5774 5773 5772 5771 5771 5770 5770 5770 5771 5771 5772 5773 5774 5774 5775 5777 5779 5780 5781 5782 5783 5784 5785 5788 5790 5792 5795 5797 5800 5801 5804 5805 5807 5808 5810 5812 5813 5815 5816 5819
5766 5765 5764 5762 5761 5760 5759 5758 5757 5757 5758 5758 5759 5760 5760 5761 5762 5763 5762 5763 5766 5769 5771 5773 5774 5775 5776 5778 5780 5784 5787 5789 5792 5794 5796 5798 5799 5801 5803 5805 5806 5807 5809
5752 5751 5749 5748 5747 5745 5744 5744 5743 5742 5742 5743 5744 5745 5746 5747 5748 5749 5750 5751 5750 5752 5756 5760 5762 5764 5766 5766 5768 5770 5775 5778 5781 5784 5786 5789 5790 5792 5793 5795 5797 5799 5800
5738 5736 5734 5733 5731 5729 5728 5726 5726 5726 5725 5725 5726 5727 5728 5730 5731 5733 5734 5736 5737 5739 5741 5743 5746 5750 5753 5754 5757 5759 5762 5765 5768 5772 5775 5778 5780 5783 5784 5786 5787 5789 5790
5722 5719 5718 5716 5715 5713 5711 5710 5709 5707 5707 5707 5708 5708 5709 5710 5713 5714 5716 5718 5721 5723 5726 5728 5730 5733 5736 5740 5743 5747 5750 5753 5755 5760 5763 5766 5769 5771 5773 5775 5777 5778 5780
5704 5701 5699 5697 5695 5694 5693 5692 5690 5689 5688 5688 5688 5689 5689 5690 5692 5693 5695 5698 5701 5704 5708 5711 5714 5717 5720 5723 5727 5731 5735 5739 5743 5746 5750 5752 5755 5759 5762 5765 5766 5768 5770
5684 5681 5679 5677 5674 5672 5671 5669 5668 5666 5666 5665 5665 5666 5667 5669 5670 5672 5673 5676 5680 5683 5687 5691 5694 5698 5703 5707 5710 5715 5719 5724 5728 5732 5736 5740 5741 5745 5749 5752 5755 5757 5758